This is the latest recevied weather packets stored in our database for station/object W4SPD. If no packets are shown the sender has not sent any weather packets the latest 10 day(s).
| Time | Temp. | Humidity | Pressure | Rain* | Wind** | Luminosity | Snow |
|---|---|---|---|---|---|---|---|
| 1778028461 | 20.56° C | 54% | - | 0 mm | - | - | - |
| 1778028159 | 21.11° C | 54% | - | 0 mm | - | - | - |
| 1778027854 | 21.11° C | 54% | - | 0 mm | - | - | - |
| 1778027551 | 21.11° C | 58% | - | 0 mm | - | - | - |
| 1778027247 | 21.11° C | 57% | - | 0 mm | - | - | - |
| 1778026943 | 21.67° C | 59% | - | 0 mm | - | - | - |
| 1778026639 | 21.67° C | 57% | - | 0 mm | - | - | - |
| 1778026337 | 22.22° C | 56% | - | 0 mm | - | - | - |
| 1778026034 | 21.67° C | 54% | - | 0 mm | - | - | - |
| 1778025731 | 22.22° C | 54% | - | 0 mm | - | - | - |
| 1778025429 | 22.22° C | 52% | - | 0 mm | - | - | - |
| 1778025126 | 22.78° C | 51% | - | 0 mm | - | - | - |
| 1778024823 | 22.78° C | 50% | - | 0 mm | - | - | - |
| 1778024520 | 22.78° C | 49% | - | 0 mm | - | - | - |
| 1778024217 | 23.33° C | 47% | - | 0 mm | - | - | - |
| 1778023915 | 23.33° C | 46% | - | 0 mm | - | - | - |
| 1778023612 | 23.33° C | 46% | - | 0 mm | - | - | - |
| 1778023309 | 23.33° C | 46% | - | 0 mm | - | - | - |
| 1778023006 | 23.89° C | 45% | - | 0 mm | - | - | - |
| 1778022705 | 23.89° C | 46% | - | 0 mm | - | - | - |
| 1778022403 | 23.89° C | 45% | - | 0 mm | - | - | - |
| 1778022099 | 24.44° C | 42% | - | 0 mm | - | - | - |
| 1778021795 | 24.44° C | 43% | - | 0 mm | - | - | - |
| 1778021491 | 24.44° C | 43% | - | 0 mm | - | - | - |
| 1778021188 | 23.89° C | 46% | - | 0 mm | - | - | - |
* Rain latest hour (hover to see other rain measurements)
** Current wind speed in m/s (hover to see current wind gust speed)